Wind_Speed
11 10 10 10 9 9 9 9 10 10 10 10 10 10 10 10 10 10 10 9 9 8 8 8 8 7 7 7 6 6 5 5 5 4 4 4 3 3 3 2 2 3 3
11 11 11 10 10 10 9 9 10 10 10 9 9 9 10 10 10 10 10 9 8 8 8 8 7 6 6 6 6 6 5 4 3 3 3 3 3 3 2 2 3 3 3
11 11 11 11 10 10 10 10 9 9 9 9 9 9 9 10 10 10 9 8 8 8 8 7 7 6 6 6 6 5 5 4 4 3 3 2 3 3 3 2 3 3 3
11 11 11 10 10 10 10 10 9 9 9 8 9 9 9 9 9 9 8 8 8 8 7 7 7 7 6 6 6 5 4 4 4 3 3 2 2 3 3 3 3 3 3
11 11 10 10 10 10 10 9 9 9 8 8 8 8 8 8 8 8 7 7 7 7 7 7 7 7 7 6 6 5 4 4 3 3 3 2 2 2 2 3 3 3 3
11 11 10 10 9 10 9 9 8 8 8 7 7 7 7 7 7 7 6 6 6 6 7 7 7 7 7 6 6 5 5 4 3 3 3 3 2 2 2 2 3 3 3
11 10 10 9 9 9 9 9 8 8 7 7 6 6 6 6 5 5 6 6 6 6 7 7 7 7 7 6 6 5 5 4 4 4 4 3 3 3 3 2 2 3 3
10 10 9 9 9 9 9 9 8 7 6 6 5 5 5 4 5 4 5 6 6 6 6 6 7 7 6 6 6 5 5 4 4 4 5 5 4 4 4 3 3 3 3
9 9 9 9 9 8 9 8 8 7 7 6 5 5 4 4 3 3 4 4 4 5 5 6 6 6 6 5 5 5 4 5 4 4 5 5 5 5 5 5 5 4 4
9 9 9 9 8 8 8 8 8 8 7 6 5 5 4 4 3 3 3 4 4 4 4 5 5 5 6 5 5 4 4 4 4 5 5 5 5 6 6 6 5 5 6
9 8 8 8 8 8 8 8 7 7 7 6 5 4 3 3 2 2 3 3 4 4 4 5 5 6 5 5 5 5 4 5 5 5 5 6 6 7 7 7 7 7 7
8 8 8 8 8 8 8 7 7 7 7 6 5 5 4 3 3 3 2 2 3 3 3 4 5 6 6 5 5 5 6 6 6 6 6 7 7 8 8 8 8 8 8
8 7 7 7 7 7 7 7 7 6 6 6 5 5 5 3 2 2 1 1 1 1 2 3 4 5 5 5 5 5 6 7 7 7 7 8 8 9 9 8 8 9 9
7 6 6 6 6 6 6 6 6 6 6 5 5 5 4 4 3 2 1 1 0 1 2 3 4 4 5 6 7 7 7 8 8 8 8 9 8 9 9 9 9 10 10
5 5 4 5 5 5 5 6 5 5 5 5 5 4 3 3 3 3 2 1 1 2 3 4 4 4 5 6 7 8 8 9 9 9 9 9 9 9 10 10 11 11 11
5 5 4 4 3 4 4 5 5 5 5 5 4 4 3 2 2 2 2 2 2 3 4 5 5 6 5 6 7 8 8 8 9 10 10 10 10 10 11 12 12 12 12
5 5 4 4 3 3 4 4 4 4 4 4 4 3 2 3 3 3 3 3 3 4 4 5 6 6 6 6 7 8 9 10 10 11 11 11 11 11 11 12 13 13 13
4 4 4 3 3 3 3 3 3 3 3 3 3 3 3 3 3 4 4 4 5 5 5 5 6 6 6 6 8 8 9 11 11 12 12 12 12 12 12 13 13 13 14
3 3 3 3 3 3 4 3 3 3 4 4 4 4 4 4 4 4 5 5 6 6 7 7 7 8 8 8 8 9 10 12 12 12 12 12 13 14 14 14 15 15 15
3 4 3 3 3 3 4 4 4 4 5 5 5 6 6 6 6 6 6 6 7 8 8 8 8 9 9 9 10 10 11 12 13 13 14 14 14 14 14 15 15 15 16
4 4 4 4 4 4 5 5 6 6 7 7 6 7 7 7 7 8 8 8 8 9 9 9 10 10 10 10 11 11 12 13 13 14 14 15 16 16 16 16 16 17 17
4 5 5 4 5 5 6 7 7 8 8 8 8 8 9 9 9 9 9 9 9 10 10 10 10 11 11 11 11 12 12 13 14 15 15 15 14 16 17 18 18 18 19
6 6 6 6 6 7 8 8 9 9 10 10 10 10 10 10 10 10 10 11 11 11 11 11 11 11 12 12 12 13 14 14 15 14 14 14 14 14 15 16 17 17 17
7 7 8 7 8 9 9 9 10 11 11 11 12 12 11 11 11 12 12 12 12 12 12 12 12 13 13 13 14 14 15 16 16 15 15 15 16 16 16 17 16 17 18
9 9 9 9 9 10 10 10 11 12 12 13 13 13 13 12 12 12 13 13 14 15 14 14 14 14 14 14 15 15 15 16 16 17 16 16 16 16 16 17 17 17 18
11 10 10 10 11 11 11 11 12 12 13 14 13 14 14 14 13 13 14 14 15 15 15 15 15 14 15 15 15 16 16 17 17 17 18 17 17 18 18 19 19 19 18
Wind_Direction
93 92 89 87 92 99 104 107 110 109 109 111 115 116 122 129 133 134 132 132 132 133 136 140 144 144 148 149 144 143 147 154 163 160 156 147 145 145 135 130 127 139 143
93 92 92 91 94 99 104 106 109 108 108 111 116 121 123 129 135 138 137 136 138 139 143 148 146 144 145 147 144 142 144 143 148 140 141 154 154 143 132 136 147 156 153
93 93 91 91 94 98 101 102 106 110 113 112 114 119 126 130 135 137 137 137 139 142 147 151 149 150 150 152 152 148 151 152 155 151 146 145 161 152 148 154 156 162 160
92 90 90 90 93 97 99 99 100 107 112 110 113 116 124 130 135 136 135 135 141 146 152 155 156 160 160 160 159 158 163 164 163 167 164 159 162 164 170 171 168 170 162
90 90 90 89 91 97 99 98 99 105 108 110 111 115 119 125 134 138 140 143 148 152 156 160 165 165 165 167 169 170 173 178 174 181 181 182 178 179 179 171 176 183 177
89 89 89 90 92 96 97 94 94 102 100 105 109 117 122 125 131 141 147 153 159 160 164 168 173 176 174 171 174 175 175 178 186 187 186 187 199 195 190 181 180 181 181
88 89 88 90 93 95 93 93 92 97 97 100 107 115 121 130 138 142 153 160 162 163 168 174 179 182 178 179 181 181 184 190 195 193 191 193 199 204 207 200 200 193 189
89 88 88 89 89 90 90 88 89 88 94 98 102 110 113 124 139 142 152 163 167 169 170 174 180 185 187 191 192 192 190 196 203 206 199 198 198 207 210 212 222 217 213
89 87 86 87 86 86 87 87 87 86 87 96 100 99 105 114 126 139 144 156 168 169 171 173 175 184 191 197 201 197 201 207 211 211 211 207 208 217 220 218 219 222 219
87 85 83 81 82 83 84 84 82 81 83 92 98 101 104 113 117 119 133 138 156 170 180 185 182 186 201 211 209 205 213 218 219 222 226 220 216 219 222 220 225 221 219
82 82 80 78 79 80 80 79 75 75 79 85 89 94 101 102 115 119 133 135 142 167 192 205 204 207 213 225 223 222 233 235 235 236 234 228 221 222 224 227 230 225 225
79 81 80 76 74 74 76 74 70 70 73 73 72 74 79 87 105 120 150 148 149 175 198 214 215 219 225 231 228 230 238 243 241 245 244 239 232 228 228 235 235 232 232
74 76 77 76 74 74 74 71 68 66 64 60 60 67 70 75 90 92 134 147 153 192 229 231 229 237 240 238 234 242 244 250 246 247 248 248 244 237 236 239 240 238 239
70 75 76 71 70 72 69 64 63 58 53 51 57 68 77 79 75 66 55 51 292 282 281 268 264 256 252 250 249 249 245 246 246 243 247 249 249 242 240 241 243 243 242
60 67 74 67 67 67 63 57 56 52 51 51 53 61 66 66 57 42 32 12 301 284 273 274 270 265 259 256 252 251 249 249 250 250 254 251 249 247 246 246 247 248 249
58 61 66 64 67 64 58 52 47 45 45 47 53 51 43 33 25 6 343 327 302 288 283 284 281 277 274 266 257 257 257 258 255 256 256 254 253 252 253 252 249 252 253
59 60 62 56 58 55 49 42 39 34 35 38 41 36 22 8 356 333 320 310 299 289 288 292 293 282 275 268 262 262 262 263 258 261 262 259 255 254 254 255 257 256 254
47 49 55 50 46 41 31 21 22 14 13 14 12 11 6 355 344 326 312 309 304 294 293 292 289 287 282 274 264 264 267 268 266 267 267 263 258 258 255 256 257 258 256
13 24 33 24 14 6 2 355 355 351 350 348 344 345 349 339 328 321 319 318 312 305 297 294 292 291 284 281 272 267 269 270 268 268 269 266 262 259 258 261 260 257 257
332 346 347 346 336 337 351 350 343 335 332 331 327 325 328 330 326 323 325 320 315 308 300 295 295 292 288 285 281 275 274 270 269 272 269 267 265 264 262 261 262 260 261
311 316 322 325 322 322 328 328 327 325 323 319 313 310 310 311 312 311 314 315 314 309 303 300 295 292 288 290 291 285 279 276 275 279 273 267 267 266 265 263 262 262 262
309 309 314 310 310 310 312 314 313 316 315 313 312 306 303 303 306 307 305 305 308 307 304 304 300 293 291 291 292 292 290 284 281 279 278 275 272 271 265 266 266 265 264
303 303 307 300 301 302 302 305 309 310 312 307 303 302 299 299 299 301 301 300 303 305 302 300 299 296 294 290 290 289 288 288 288 282 280 278 274 272 270 270 268 269 268
297 298 301 300 299 300 300 302 304 306 309 307 302 298 295 295 297 297 299 299 301 305 302 298 295 296 296 293 291 290 288 286 285 283 279 275 273 271 272 272 271 271 272
294 297 297 296 298 301 302 301 300 303 308 307 303 298 294 291 296 300 300 301 299 299 299 297 296 296 296 294 291 290 290 288 283 282 279 275 275 273 273 274 274 274 273
292 292 294 294 297 300 301 301 302 303 304 306 303 298 298 294 299 301 301 300 301 302 300 297 296 294 292 292 291 290 290 290 286 282 278 277 275 274 273 273 271 272 272
Height
5891 5890 5890 5890 5889 5889 5888 5888 5887 5887 5887 5887 5887 5887 5887 5888 5888 5889 5890 5890 5891 5891 5892 5893 5894 5894 5895 5896 5896 5897 5897 5898 5898 5898 5899 5900 5900 5900 5900 5900 5901 5901 5901
5892 5891 5891 5891 5891 5890 5889 5889 5889 5889 5888 5888 5888 5888 5888 5888 5889 5890 5890 5891 5891 5892 5893 5893 5894 5895 5895 5896 5897 5897 5897 5898 5898 5899 5899 5899 5900 5900 5900 5901 5901 5901 5901
5894 5893 5893 5892 5892 5891 5891 5890 5890 5890 5890 5889 5889 5889 5889 5889 5890 5890 5891 5891 5892 5892 5893 5894 5895 5895 5896 5896 5897 5897 5897 5898 5899 5899 5899 5899 5899 5900 5901 5901 5901 5901 5901
5895 5895 5894 5894 5894 5893 5892 5892 5891 5891 5891 5891 5890 5890 5890 5890 5890 5891 5891 5892 5892 5893 5893 5894 5895 5895 5896 5896 5897 5897 5898 5898 5899 5899 5899 5899 5900 5900 5901 5901 5901 5901 5901
5897 5896 5896 5895 5895 5894 5894 5893 5893 5892 5892 5891 5891 5891 5891 5891 5891 5891 5892 5892 5892 5893 5894 5894 5895 5896 5896 5896 5897 5897 5898 5898 5898 5899 5899 5900 5900 5900 5900 5901 5901 5901 5902
5898 5898 5897 5897 5896 5896 5895 5894 5894 5893 5893 5893 5892 5892 5892 5892 5892 5892 5892 5892 5893 5893 5894 5894 5895 5895 5896 5896 5897 5897 5898 5898 5898 5899 5899 5900 5900 5900 5900 5901 5901 5901 5902
5899 5899 5898 5898 5898 5897 5896 5896 5895 5894 5894 5893 5893 5893 5893 5893 5892 5892 5892 5892 5892 5893 5894 5894 5895 5895 5895 5896 5896 5897 5898 5898 5898 5899 5899 5900 5900 5900 5901 5901 5901 5901 5902
5901 5900 5900 5899 5899 5898 5897 5897 5896 5895 5895 5894 5894 5893 5893 5893 5893 5893 5892 5892 5892 5893 5893 5894 5894 5895 5895 5896 5896 5896 5897 5897 5898 5898 5898 5899 5900 5900 5900 5901 5901 5901 5901
5902 5901 5901 5900 5900 5899 5898 5898 5897 5896 5896 5895 5894 5894 5894 5893 5893 5893 5892 5892 5892 5892 5892 5893 5894 5894 5895 5895 5896 5896 5897 5897 5897 5898 5898 5898 5899 5900 5900 5900 5900 5901 5901
5903 5903 5902 5902 5901 5900 5899 5899 5898 5897 5896 5896 5895 5895 5894 5894 5893 5893 5892 5892 5892 5892 5892 5893 5893 5894 5894 5894 5895 5895 5896 5896 5897 5897 5897 5898 5898 5899 5899 5899 5900 5900 5900
5905 5904 5904 5903 5902 5901 5900 5900 5899 5898 5897 5897 5896 5895 5895 5894 5894 5893 5893 5892 5892 5892 5892 5892 5893 5893 5894 5894 5894 5894 5895 5895 5896 5896 5896 5897 5897 5898 5898 5898 5899 5899 5899
5906 5906 5905 5904 5904 5903 5902 5901 5900 5899 5898 5897 5897 5896 5895 5894 5894 5893 5893 5893 5893 5893 5892 5892 5892 5893 5893 5893 5893 5894 5894 5895 5895 5895 5896 5896 5896 5897 5897 5897 5897 5898 5898
5907 5907 5906 5905 5905 5904 5903 5902 5901 5900 5899 5898 5897 5896 5895 5895 5894 5894 5893 5893 5893 5892 5892 5891 5891 5892 5892 5892 5892 5893 5893 5894 5894 5894 5894 5895 5895 5895 5895 5896 5896 5896 5897
5908 5908 5907 5906 5906 5905 5904 5903 5902 5901 5900 5899 5898 5897 5896 5895 5895 5894 5893 5893 5893 5892 5892 5891 5891 5891 5891 5891 5891 5892 5892 5892 5892 5893 5893 5893 5893 5894 5894 5894 5895 5895 5895
5909 5909 5908 5907 5907 5906 5905 5904 5903 5902 5901 5900 5898 5897 5897 5896 5895 5894 5894 5893 5893 5892 5892 5891 5891 5890 5890 5890 5890 5890 5890 5890 5890 5891 5891 5891 5892 5892 5892 5892 5893 5893 5894
5910 5909 5909 5908 5907 5907 5906 5905 5904 5903 5902 5900 5899 5898 5897 5896 5895 5895 5894 5894 5893 5892 5891 5891 5890 5890 5889 5889 5888 5888 5888 5888 5888 5888 5889 5889 5889 5890 5890 5890 5891 5891 5891
5910 5910 5909 5909 5908 5907 5907 5906 5905 5903 5902 5901 5900 5898 5897 5896 5895 5895 5894 5893 5892 5891 5891 5890 5889 5888 5888 5887 5887 5887 5887 5887 5886 5886 5886 5886 5887 5887 5887 5887 5888 5888 5888
5911 5910 5910 5909 5908 5908 5907 5906 5905 5904 5903 5901 5900 5899 5897 5896 5895 5894 5893 5892 5891 5890 5889 5889 5888 5887 5886 5885 5885 5885 5885 5884 5884 5884 5884 5883 5883 5884 5884 5884 5885 5885 5886
5912 5911 5910 5910 5909 5908 5906 5905 5904 5903 5902 5901 5900 5899 5897 5896 5895 5894 5893 5891 5890 5889 5888 5887 5886 5885 5885 5884 5883 5883 5882 5882 5882 5881 5881 5881 5881 5881 5881 5881 5882 5882 5882
5912 5911 5910 5909 5908 5907 5906 5905 5904 5903 5902 5900 5899 5898 5897 5895 5894 5893 5892 5890 5889 5888 5886 5885 5884 5883 5883 5882 5881 5881 5880 5880 5879 5879 5878 5878 5878 5878 5878 5878 5878 5879 5879
5911 5910 5909 5909 5908 5907 5906 5905 5903 5902 5901 5899 5898 5897 5896 5895 5893 5892 5891 5889 5888 5886 5885 5884 5882 5881 5880 5880 5879 5878 5878 5877 5876 5875 5875 5875 5874 5874 5874 5874 5875 5875 5875
5911 5910 5909 5908 5907 5906 5905 5904 5903 5901 5900 5898 5897 5895 5894 5893 5892 5890 5889 5887 5886 5884 5883 5882 5881 5879 5878 5877 5876 5876 5875 5874 5873 5872 5872 5871 5870 5870 5871 5871 5871 5871 5871
5910 5909 5908 5907 5906 5905 5904 5902 5901 5900 5898 5897 5895 5893 5892 5891 5889 5888 5887 5886 5884 5883 5881 5880 5878 5877 5876 5875 5874 5873 5872 5871 5870 5869 5868 5867 5867 5867 5867 5867 5867 5867 5867
5909 5908 5906 5905 5904 5903 5902 5901 5899 5898 5896 5894 5892 5891 5889 5888 5887 5886 5884 5883 5882 5880 5878 5877 5876 5874 5873 5872 5871 5869 5868 5867 5866 5865 5864 5863 5863 5863 5862 5862 5862 5862 5862
5907 5906 5905 5904 5902 5901 5900 5899 5897 5895 5893 5892 5890 5888 5886 5885 5884 5883 5881 5880 5878 5877 5875 5874 5872 5871 5869 5868 5867 5865 5864 5863 5862 5861 5860 5859 5858 5858 5857 5857 5857 5857 5857
5905 5904 5903 5902 5900 5899 5898 5896 5895 5893 5891 5889 5887 5884 5883 5881 5880 5879 5878 5876 5875 5873 5871 5870 5868 5867 5865 5864 5862 5861 5860 5858 5857 5856 5855 5854 5854 5853 5853 5852 5852 5852 5852